Temperature
15 15 15 16 16 16 17 17 17 17 17 17 17 17 17 17 17 17 17 17 17 17 17 17 17 16 16 16 16 16 16 16 16 16 16 16 16 16 16 16 16 16 16
15 15 15 16 16 16 16 17 17 17 17 17 17 17 17 17 17 17 17 17 17 17 17 17 16 16 16 16 16 16 16 16 16 16 16 16 16 16 16 16 16 16 16
15 15 15 16 16 16 16 16 17 17 17 17 17 17 17 17 17 17 17 17 16 16 17 17 16 16 16 16 16 16 16 16 16 16 16 16 16 15 15 15 15 15 15
15 15 15 16 16 16 16 16 16 16 16 16 17 16 16 16 16 16 16 16 16 16 16 16 16 16 16 16 16 16 16 16 16 16 16 15 15 15 15 15 15 15 15
15 15 15 15 16 16 16 16 16 16 16 16 16 16 16 16 16 16 16 16 16 16 16 16 16 16 16 16 16 15 15 15 15 15 15 15 15 15 15 15 15 15 15
15 15 15 15 15 16 16 16 16 16 16 16 16 16 16 16 16 16 16 16 16 16 16 16 15 15 15 15 15 15 15 15 15 15 15 15 15 15 15 15 15 15 15
14 14 15 15 15 15 15 16 16 16 16 15 15 15 15 16 16 16 16 15 15 15 15 15 15 15 15 15 15 15 15 15 15 15 15 15 14 14 14 14 14 14 14
14 14 14 15 15 15 15 15 15 15 15 15 15 15 15 15 15 15 15 15 15 15 15 15 15 15 15 14 14 14 14 14 14 14 14 14 14 14 14 14 14 14 14
14 14 14 14 15 15 15 15 15 15 15 15 15 15 15 15 15 15 15 15 15 15 15 14 14 14 14 14 14 14 14 14 14 14 14 14 14 14 13 13 13 13 13
13 14 14 14 14 14 14 14 14 14 14 14 14 14 14 14 14 15 15 14 14 14 14 14 14 14 14 14 14 14 13 13 13 13 13 13 13 13 13 13 13 13 13
13 13 13 14 14 14 14 14 14 14 14 14 14 14 14 14 14 14 14 14 14 14 14 14 14 14 14 14 13 13 13 13 13 13 13 13 13 13 13 12 12 12 12
13 13 13 13 13 13 14 14 14 14 14 14 14 14 14 14 14 14 14 14 14 13 13 13 13 13 13 13 13 13 13 13 13 13 13 12 12 12 12 12 12 12 12
13 13 13 13 13 13 13 13 14 14 14 14 14 14 13 13 13 13 13 13 13 13 13 13 13 13 13 13 13 13 13 12 12 12 12 12 12 12 12 12 12 12 12
13 13 13 13 13 13 13 13 13 13 13 13 13 13 13 13 13 13 13 13 13 13 13 13 13 12 12 12 12 12 12 12 12 12 12 12 12 12 11 11 11 11 11
13 12 12 12 13 13 13 13 13 13 13 13 13 13 13 13 13 13 13 12 12 12 12 12 12 12 12 12 12 12 12 12 12 12 12 12 11 11 11 11 11 10 10
13 12 12 12 12 12 12 13 13 13 13 13 13 12 12 12 12 12 12 12 12 12 12 12 12 12 12 12 12 12 12 12 11 11 11 11 11 11 11 10 10 10 10
13 12 12 12 12 12 12 12 12 12 12 12 12 12 12 12 12 12 12 12 11 11 11 11 11 11 11 11 11 11 11 11 11 11 11 11 11 10 10 10 10 9 9
12 12 12 12 12 12 12 12 12 12 12 12 12 11 11 11 11 11 11 11 11 11 11 11 11 11 11 11 11 11 11 11 11 10 10 10 10 10 10 9 9 9 9
12 12 12 12 12 12 11 11 11 11 11 11 11 11 11 11 11 11 11 11 11 10 10 10 10 10 10 10 10 10 10 10 10 10 10 9 9 9 9 9 9 8 8
12 12 12 11 11 11 11 11 11 11 11 11 11 11 10 10 10 10 10 10 10 10 10 10 10 10 10 10 10 10 10 10 10 10 9 9 9 9 8 8 8 8 8
12 11 11 11 11 11 11 11 11 11 10 10 10 10 10 10 10 10 10 10 10 9 9 9 9 9 9 9 9 9 9 9 9 9 9 8 8 8 8 7 7 7 7
12 11 11 11 11 11 11 11 10 10 10 10 10 10 10 9 9 9 9 9 9 9 9 9 9 8 8 8 7 7 7 8 8 8 8 8 7 7 7 7 7 6 6
12 11 11 11 11 10 10 10 10 10 10 9 9 9 9 9 9 9 9 9 9 8 8 8 8 8 7 7 6 6 5 5 5 6 6 7 6 6 6 6 6 6 6
12 11 11 11 10 10 10 10 10 10 9 9 9 9 9 9 9 9 8 8 8 8 8 8 7 7 7 6 6 6 5 4 4 4 5 6 6 6 6 5 5 5 5
11 11 11 10 10 10 10 10 9 9 9 9 9 9 8 8 8 8 8 8 8 7 7 7 7 7 6 6 6 5 5 5 4 4 4 5 5 5 5 5 5 5 5
11 11 10 10 10 10 9 9 9 9 9 8 8 8 8 8 8 8 7 7 7 7 7 7 6 6 6 6 5 5 5 4 4 3 3 4 4 5 5 5 4 4 4
Wind_Speed
5 7 13 13 13 13 13 13 13 13 13 13 13 13 13 13 13 12 11 11 10 10 9 9 9 9 8 8 8 8 8 8 7 7 7 6 5 5 5 4 3 3 3
8 10 14 13 13 13 13 13 13 13 13 13 13 13 13 13 13 12 12 11 10 10 9 9 8 8 7 7 7 7 7 6 6 6 6 5 4 4 3 3 2 2 3
9 11 14 14 14 14 13 13 13 13 13 13 12 12 12 12 12 11 11 11 11 10 9 9 9 8 7 7 6 6 5 5 5 5 4 4 3 3 2 2 2 1 1
12 12 13 15 14 14 14 13 13 13 13 13 12 12 12 11 11 11 10 10 10 10 9 8 8 8 7 7 6 6 5 5 4 4 3 3 3 2 2 2 1 0 0
10 12 14 15 14 14 14 14 13 13 13 12 12 12 11 11 10 10 10 9 9 9 8 8 7 7 7 7 6 6 6 7 6 4 2 3 3 2 2 3 2 1 2
9 12 14 15 15 14 14 13 13 13 12 12 11 11 11 10 10 9 9 9 9 8 8 7 7 6 6 6 7 7 7 7 6 4 3 3 3 3 3 3 3 3 3
9 11 14 15 14 14 13 13 13 12 12 12 11 11 10 10 9 9 9 8 8 8 7 7 7 6 6 6 6 7 7 7 6 5 4 4 4 4 4 4 4 4 4
10 10 12 14 14 13 12 12 12 12 12 11 11 10 10 10 9 8 8 8 7 7 7 7 7 7 7 6 7 7 7 7 6 5 4 4 4 5 5 5 5 5 5
10 10 10 11 12 12 12 12 11 11 11 11 10 10 9 9 8 8 8 7 7 7 7 7 7 6 7 7 7 7 7 7 6 5 5 5 6 6 6 6 6 6 6
8 8 8 10 10 10 10 11 11 11 10 10 10 9 9 8 8 8 7 7 7 7 7 7 7 7 7 8 8 8 8 7 6 5 5 5 7 7 8 8 7 7 7
8 7 7 8 8 9 9 10 10 10 10 10 9 9 9 8 7 7 7 7 7 7 7 7 8 8 8 8 8 8 7 6 6 5 5 7 8 9 9 9 9 9 9
9 7 6 7 7 7 7 8 8 8 8 9 8 8 8 8 7 7 7 7 8 8 8 8 8 8 8 7 7 7 6 6 5 5 6 9 9 10 10 10 10 10 10
9 8 7 7 7 6 5 6 6 7 7 7 8 7 8 7 7 7 6 7 7 7 7 8 8 7 6 5 5 5 5 5 4 5 7 9 10 11 11 11 11 11 11
9 8 7 6 6 6 6 5 5 5 5 4 5 6 6 5 4 4 4 4 5 5 5 6 5 6 6 6 5 4 5 4 5 5 7 9 10 11 11 12 12 12 13
9 9 8 7 6 5 5 4 4 4 4 5 5 5 5 4 2 2 3 3 4 4 4 4 4 5 5 5 5 5 4 5 5 6 7 9 10 11 12 12 13 13 13
11 10 8 8 7 6 4 3 3 4 5 5 4 4 5 4 3 2 2 2 3 3 4 3 3 3 3 3 4 5 5 5 5 6 7 9 10 11 12 13 13 14 14
11 10 9 9 7 7 5 4 4 4 5 4 4 4 4 4 3 3 2 1 2 3 4 4 4 3 3 4 4 5 4 4 5 5 7 7 8 10 12 13 14 15 15
11 10 9 9 8 7 5 4 4 4 4 4 4 4 4 4 3 3 2 1 2 3 3 2 2 3 4 4 4 4 4 4 4 5 5 6 7 8 10 12 14 15 16
13 12 10 8 8 7 5 4 4 4 3 3 4 3 3 3 3 3 2 1 1 2 2 2 2 2 3 5 5 4 4 4 4 4 4 5 6 7 8 11 14 15 17
12 12 11 9 8 7 5 3 3 2 2 2 3 3 3 3 3 3 2 1 1 1 2 2 2 3 2 4 5 5 5 5 4 3 4 5 6 7 8 9 10 12 15
11 11 11 10 8 7 5 4 4 3 2 1 2 3 3 3 2 2 1 1 1 1 1 2 2 3 3 3 3 5 5 4 4 3 3 4 5 6 7 8 9 10 11
13 12 12 11 10 8 6 4 3 3 2 2 1 2 2 3 2 2 2 0 0 0 1 2 2 2 3 3 2 3 4 5 3 4 4 4 5 5 6 10 10 10 11
13 14 13 11 10 8 6 4 3 2 2 1 1 1 2 2 2 2 2 1 0 1 1 2 1 1 2 3 1 0 1 3 6 4 4 4 5 5 6 7 9 11 12
13 12 12 11 10 8 8 7 7 5 3 3 3 2 2 2 3 3 2 2 1 1 1 2 2 2 2 3 2 1 3 3 3 5 5 4 6 7 7 8 8 10 12
12 11 11 10 9 8 8 8 7 4 3 2 1 2 2 2 2 2 2 2 2 2 2 2 2 2 2 3 3 3 3 3 4 5 9 8 7 6 6 7 7 8 11
9 9 10 10 9 8 8 8 7 6 4 3 2 3 2 2 2 2 2 2 2 2 3 3 3 3 3 3 3 3 3 3 4 4 8 11 11 9 8 6 6 7 9
Wind_Direction
161 155 134 127 120 114 109 107 103 99 97 94 91 89 86 84 81 79 78 79 76 73 72 71 68 66 65 66 68 67 66 64 61 60 60 61 67 71 76 74 79 85 99
149 143 132 127 123 118 113 110 105 102 99 96 94 92 89 85 81 78 76 75 72 70 70 68 64 62 59 61 63 63 61 61 58 52 49 48 54 58 64 66 80 96 100
132 131 129 127 123 118 113 110 107 104 102 99 97 93 90 86 83 79 75 71 68 65 65 62 59 57 56 54 54 54 53 53 45 41 42 37 36 35 42 44 64 99 109
129 128 129 126 122 119 116 112 108 105 102 100 97 94 91 88 84 80 76 71 67 63 61 59 56 52 49 47 45 43 35 30 27 29 37 21 11 12 15 17 16 20 211
122 127 129 127 124 120 117 114 111 107 104 101 98 95 92 89 86 81 77 72 67 63 58 56 55 50 44 38 35 31 25 26 25 29 20 0 351 336 336 333 321 281 263
121 125 130 128 125 121 118 114 113 110 106 102 100 97 93 90 85 80 76 71 66 61 56 52 50 47 40 33 28 25 22 22 23 23 3 346 341 319 306 301 295 275 271
125 126 130 128 125 123 120 116 113 110 108 105 100 96 93 90 85 80 75 69 65 60 54 48 43 41 36 29 22 19 19 17 21 15 353 336 327 318 309 311 304 290 281
128 121 125 128 126 124 120 118 114 110 108 105 102 97 92 88 84 79 74 68 64 58 51 44 38 34 29 23 18 14 15 14 13 7 349 332 325 324 318 315 307 300 292
125 118 112 115 119 121 120 119 116 113 110 106 102 97 91 86 81 77 72 67 61 54 47 39 33 28 24 19 13 9 11 8 9 356 339 332 321 316 314 311 306 296 290
121 120 115 111 109 109 114 117 117 114 110 106 102 96 89 83 77 73 67 61 55 50 42 35 28 22 18 14 10 7 3 1 359 348 337 328 325 320 316 311 308 308 303
131 131 126 118 114 113 114 113 111 110 107 102 98 93 85 76 71 66 65 57 50 42 35 29 21 15 12 8 2 360 358 355 346 338 330 326 325 322 319 315 309 305 304
149 146 140 132 129 123 116 109 103 100 101 99 97 93 85 77 69 63 60 52 43 35 30 25 19 14 9 2 355 356 355 345 341 329 323 323 320 317 317 317 313 306 302
155 150 147 141 136 129 120 118 106 102 100 99 100 97 90 77 67 59 53 44 36 32 28 19 16 10 6 1 356 353 346 341 333 323 321 323 320 317 314 312 311 308 304
153 154 153 144 137 134 132 126 123 115 107 105 107 106 98 83 68 56 50 39 35 30 24 17 12 5 3 359 357 354 347 341 336 329 327 327 325 322 317 313 309 307 304
156 158 159 152 144 138 130 134 130 129 128 125 112 110 112 106 91 70 53 42 31 26 23 17 15 10 7 358 354 353 343 334 330 330 328 328 327 325 322 319 316 312 308
165 165 160 157 150 142 139 138 140 139 136 128 120 119 120 118 112 92 63 45 27 19 19 22 15 9 358 357 347 345 335 330 330 328 327 325 324 324 325 322 320 318 315
169 165 164 160 152 148 146 147 143 143 139 132 133 132 124 122 120 111 88 46 20 18 24 24 13 10 355 350 337 332 336 333 327 326 326 326 325 324 325 324 323 320 318
165 165 166 163 156 155 151 147 143 143 141 142 142 138 133 125 123 113 101 51 20 34 38 16 357 353 347 341 330 321 324 326 323 322 324 326 326 326 327 327 326 325 322
168 166 165 160 159 160 153 145 142 141 144 153 148 145 144 131 123 121 114 81 40 47 29 355 355 346 336 334 324 318 316 313 309 316 321 324 324 324 326 328 327 325 323
169 166 165 161 160 155 145 131 122 122 139 149 158 162 156 145 130 120 108 77 63 42 5 355 337 337 322 319 322 322 312 303 305 304 305 320 323 323 325 323 324 320 320
168 168 168 164 164 157 155 156 158 175 183 183 180 172 164 159 150 133 122 90 69 48 330 337 337 339 334 335 343 332 321 308 307 297 307 308 314 320 326 324 320 317 316
174 174 171 171 169 169 170 170 170 168 183 196 190 184 181 171 169 150 148 172 115 28 358 347 342 336 330 354 357 340 335 331 330 309 303 297 305 320 322 318 313 311 310
178 177 177 175 172 170 160 142 125 100 80 102 204 227 229 198 188 179 173 173 209 192 263 289 295 296 307 322 340 227 328 300 313 298 293 296 304 307 306 307 307 308 306
183 178 173 172 172 169 160 160 162 169 184 210 207 217 235 209 197 195 192 187 213 238 254 272 284 272 264 296 309 257 236 248 287 308 304 295 297 295 292 302 302 302 301
177 173 171 168 171 169 168 168 170 178 190 188 186 202 227 239 218 210 204 197 228 251 257 267 278 273 262 265 273 277 282 277 255 272 296 304 302 283 285 288 289 294 299
168 167 168 169 174 173 172 173 176 178 179 173 190 203 223 245 253 239 227 222 232 247 255 259 262 260 265 267 270 265 262 268 274 272 285 299 302 299 293 283 285 289 297
Height
1515 1518 1520 1522 1523 1524 1526 1527 1527 1528 1529 1530 1530 1531 1531 1532 1532 1532 1532 1533 1533 1533 1533 1533 1533 1533 1533 1533 1533 1533 1532 1532 1532 1532 1531 1531 1531 1531 1531 1530 1530 1529 1529
1514 1517 1519 1521 1523 1524 1525 1526 1527 1528 1529 1530 1530 1531 1531 1532 1532 1532 1532 1533 1533 1533 1533 1533 1533 1533 1533 1533 1532 1532 1532 1532 1532 1531 1531 1531 1531 1530 1530 1530 1530 1529 1529
1514 1517 1519 1521 1522 1524 1525 1526 1527 1528 1529 1530 1530 1531 1531 1531 1532 1532 1532 1532 1532 1532 1532 1532 1532 1532 1532 1532 1532 1532 1531 1531 1531 1531 1530 1530 1530 1530 1530 1529 1529 1529 1528
1514 1516 1518 1520 1522 1523 1525 1526 1527 1528 1528 1529 1530 1530 1530 1531 1531 1531 1531 1532 1532 1532 1532 1532 1531 1531 1531 1531 1531 1531 1530 1530 1530 1530 1529 1529 1529 1529 1529 1528 1528 1528 1527
1514 1516 1518 1520 1522 1523 1524 1526 1526 1527 1528 1529 1529 1529 1530 1530 1530 1531 1531 1531 1531 1531 1531 1531 1530 1530 1530 1530 1530 1530 1529 1529 1529 1529 1528 1528 1528 1528 1527 1527 1527 1526 1526
1513 1516 1518 1520 1521 1523 1524 1525 1526 1527 1527 1528 1528 1529 1529 1529 1530 1530 1530 1530 1530 1530 1530 1530 1529 1529 1529 1529 1528 1528 1528 1528 1528 1527 1527 1527 1526 1526 1526 1525 1525 1524 1524
1513 1515 1517 1519 1521 1522 1523 1524 1525 1526 1527 1527 1528 1528 1528 1528 1529 1529 1529 1529 1529 1529 1528 1528 1528 1528 1527 1527 1527 1527 1526 1526 1526 1525 1525 1525 1525 1524 1524 1523 1523 1522 1522
1513 1515 1517 1519 1520 1522 1523 1524 1525 1525 1526 1526 1527 1527 1527 1528 1528 1528 1528 1528 1528 1527 1527 1527 1527 1526 1526 1526 1525 1525 1525 1524 1524 1523 1523 1523 1523 1522 1522 1521 1521 1520 1519
1513 1515 1516 1518 1520 1521 1522 1523 1524 1525 1525 1526 1526 1527 1527 1527 1527 1527 1527 1526 1526 1526 1526 1525 1525 1525 1524 1524 1523 1523 1523 1522 1522 1521 1521 1520 1520 1520 1519 1519 1518 1517 1517
1512 1514 1516 1517 1519 1520 1521 1522 1523 1524 1525 1525 1526 1526 1526 1526 1526 1526 1526 1525 1525 1524 1524 1523 1523 1523 1522 1522 1521 1521 1520 1520 1520 1519 1519 1518 1518 1517 1517 1516 1515 1515 1514
1511 1513 1515 1516 1518 1519 1520 1521 1522 1523 1524 1524 1525 1525 1525 1525 1525 1525 1525 1524 1524 1523 1522 1522 1521 1521 1520 1520 1519 1519 1518 1518 1517 1517 1516 1515 1515 1514 1514 1513 1512 1512 1511
1509 1511 1514 1515 1517 1518 1519 1520 1521 1522 1523 1524 1524 1524 1524 1524 1524 1524 1523 1523 1522 1522 1521 1520 1520 1519 1519 1518 1517 1517 1516 1515 1515 1514 1513 1513 1512 1511 1510 1510 1509 1508 1507
1507 1510 1512 1514 1516 1517 1518 1519 1520 1521 1522 1523 1523 1523 1523 1523 1523 1522 1522 1521 1521 1520 1520 1519 1518 1517 1517 1516 1515 1514 1514 1513 1512 1511 1511 1510 1509 1508 1507 1506 1505 1504 1504
1506 1508 1511 1513 1514 1516 1517 1518 1519 1520 1521 1521 1522 1522 1522 1521 1521 1521 1520 1520 1519 1519 1518 1517 1516 1516 1515 1514 1513 1512 1511 1511 1510 1509 1508 1507 1505 1504 1503 1502 1501 1500 1500
1504 1507 1509 1511 1513 1514 1516 1517 1518 1519 1519 1520 1520 1520 1520 1520 1520 1519 1519 1518 1518 1517 1516 1515 1515 1514 1513 1512 1511 1510 1509 1508 1507 1506 1504 1503 1502 1501 1500 1499 1497 1496 1495
1502 1505 1507 1509 1511 1513 1514 1515 1516 1517 1518 1518 1519 1519 1519 1519 1518 1518 1517 1517 1516 1515 1515 1514 1513 1512 1511 1510 1509 1508 1506 1505 1504 1503 1502 1500 1499 1498 1496 1495 1493 1492 1491
1500 1503 1505 1508 1510 1511 1513 1514 1515 1516 1516 1517 1517 1517 1517 1517 1517 1516 1516 1515 1515 1514 1513 1512 1511 1510 1509 1508 1506 1505 1504 1502 1501 1500 1498 1497 1496 1494 1493 1491 1489 1488 1486
1498 1501 1503 1505 1507 1509 1511 1512 1513 1514 1515 1515 1515 1515 1515 1515 1515 1515 1514 1514 1513 1512 1511 1510 1509 1508 1506 1505 1503 1502 1501 1499 1498 1497 1495 1494 1492 1491 1489 1487 1485 1483 1482
1495 1498 1500 1503 1505 1507 1509 1510 1511 1512 1513 1513 1514 1514 1514 1514 1514 1513 1513 1512 1511 1510 1509 1508 1507 1506 1504 1502 1500 1499 1497 1496 1495 1493 1492 1490 1489 1487 1485 1483 1481 1479 1477
1493 1495 1498 1500 1503 1505 1506 1508 1509 1510 1511 1511 1512 1512 1512 1512 1512 1511 1511 1510 1509 1508 1507 1506 1505 1503 1502 1499 1497 1495 1494 1492 1491 1490 1488 1487 1485 1483 1481 1479 1477 1474 1472
1489 1492 1494 1497 1499 1501 1503 1504 1505 1506 1508 1509 1509 1510 1510 1510 1510 1509 1509 1508 1507 1506 1505 1504 1503 1501 1499 1497 1494 1491 1489 1488 1487 1486 1484 1483 1481 1479 1477 1475 1472 1470 1467
1484 1487 1491 1493 1496 1498 1500 1501 1503 1504 1505 1506 1507 1507 1508 1507 1507 1507 1506 1506 1505 1504 1503 1502 1501 1498 1497 1495 1493 1489 1485 1484 1482 1482 1480 1478 1477 1475 1473 1471 1468 1465 1463
1480 1483 1486 1489 1492 1495 1497 1499 1501 1502 1502 1503 1504 1504 1505 1505 1505 1504 1504 1503 1503 1502 1501 1500 1498 1496 1494 1493 1492 1491 1487 1482 1478 1476 1475 1474 1472 1471 1468 1466 1463 1461 1458
1475 1479 1483 1486 1489 1491 1494 1495 1496 1497 1498 1499 1500 1501 1502 1502 1502 1502 1501 1501 1500 1499 1498 1497 1496 1494 1493 1491 1490 1489 1488 1484 1480 1473 1470 1470 1468 1466 1464 1461 1459 1456 1453
1471 1475 1479 1482 1485 1488 1490 1492 1493 1494 1496 1497 1497 1498 1498 1499 1499 1499 1498 1498 1497 1497 1496 1494 1493 1492 1490 1489 1487 1485 1483 1482 1479 1475 1467 1463 1461 1461 1459 1456 1454 1451 1448
1468 1472 1475 1478 1481 1484 1486 1488 1490 1491 1492 1493 1494 1494 1495 1495 1495 1495 1495 1495 1494 1493 1493 1491 1490 1489 1487 1486 1484 1482 1480 1478 1475 1473 1467 1460 1456 1454 1453 1451 1449 1446 1443